SAUDICOMSAT 1

Last updated on Fri Dec 29 2023 00:03:02 GMT+0000 (Coordinated Universal Time)

1 28369U 04025D 23362.48067681 .00000896 00000+0 22449-3 0 9991 2 28369 98.5179 335.4806 0031803 263.9822 95.7749 14.53623994 33097
UTC large
Height (km)
Speed (km/s)
/
Latitude / Longitude
Inclination (degrees)
Orbital Period (minutes)
Azimuth
Elevation
Range (km)
Doppler Factor

Next 0 passes for location: London (51.5072 / 0.1276)

Sorry there are no passes over London.